Regional Weather Roundup
Issued by NWS

Home | Current Version | Previous Version | Graphics & Text | Print | Product List | Glossary On
Versions: 1 2 3 4 5 6 7 8 9 10 11 12 13 14 15 16 17 18 19 20 21 22 23 24 25 26 27 28 29 30 31 32 33 34 35 36 37 38 39 40 41 42 43 44 45 46 47 48 49 50
768
ASUS43 KIND 240809
RWRIN

WEATHER ROUNDUP FOR INDIANA
NATIONAL WEATHER SERVICE INDIANAPOLIS IN
400 AM EDT SUN JUL 24 2016

NOTE: "FAIR" INDICATES FEW OR NO CLOUDS BELOW 12,000 FEET WITH NO
SIGNIFICANT WEATHER AND/OR OBSTRUCTIONS TO VISIBILITY.

* - STATION DOES NOT REPORT WEATHER SUCH AS PRECIPITATION OR FOG.

+ - STATION NOT QUALITY CONTROLLED BY THE NATIONAL WEATHER SERVICE.
    USE DATA WITH CAUTION...ESPECIALLY DEWPOINT AND RELATIVE
    HUMIDITY OBSERVATIONS.

INZ001>003-010>013-019-020-240900-
NORTHWEST INDIANA

CITY           SKY/WX    TMP DP  RH WIND       PRES   REMARKS
GARY /AIRPORT/ CLOUDY    72  72 100 S3        29.94S
KNOX *+        CLOUDY    70  68  94 SE5       29.96F
LA PORTE +     CLOUDY   N/A N/A N/A CALM      29.96F
MICHIGAN CITY+ LGT RAIN  70  70 100 SE3       29.94F
MONTICELLO +   CLOUDY    71  66  85 E5        29.97F
RENSSELAER +   CLOUDY    70  70 100 CALM      29.96F
VALPARAISO     LGT RAIN  71  69  93 E7        29.94F

$$

LMZ046-743>745-240900-
SOUTHERN LAKE MICHIGAN

STATION/POSITION TIME  TEMP    WIND        PRES    WAVE
                       AIR SEA DIR/SP/G            HT
                 (UTC) (F)     (DEG/KT/KT) (MB)    (FT)
BURNS HARBOR     0703   72     130/  6/ 10 1014.9F
MICHIGAN CITY    0700   71     170/  7/  8   N/A
5NW MICH CITY    0700   71 73  200/  8/ 12   N/A     2

$$

INZ004-005-014>016-021>024-240900-
NORTH CENTRAL INDIANA

CITY           SKY/WX    TMP DP  RH WIND       PRES   REMARKS
GOSHEN         RAIN      71  68  90 E5        29.99F FOG
LOGANSPORT +   CLOUDY    70  70 100 E5        30.00F
PERU/GRISSOM   LGT RAIN  71  71  99 NE3       29.98F
ROCHESTER +    LGT RAIN  72  72 100 W3        30.02R
SOUTH BEND     LGT RAIN  70  69  97 CALM      29.97F
WARSAW +       RAIN      70  70 100 E5        29.99F

$$

INZ006>009-017-018-025>027-240900-
NORTHEAST INDIANA

CITY           SKY/WX    TMP DP  RH WIND       PRES   REMARKS
ANGOLA *+        N/A     79  72  78 W14G21    30.01R
AUBURN +       CLOUDY    75  66  73 W15G28    30.03R
FORT WAYNE     CLOUDY    75  68  78 NW14G22   30.01R
HUNTINGTON +   LGT RAIN N/A N/A N/A N5        30.00F

$$

INZ028-029-035-036-043>045-051>053-240900-
WEST CENTRAL INDIANA

CITY           SKY/WX    TMP DP  RH WIND       PRES   REMARKS
CRAWFORDSVL +  CLOUDY    73  73 100 NE3       29.99F
GREENCASTLE +  PTCLDY    73  73 100 CALM      29.99F
LAFAYETTE      CLOUDY    72  69  90 E6        29.98F
TERRE HAUTE    CLOUDY    76  74  93 SE3       29.96F FOG

$$

INZ030>032-037>040-046>048-054>057-064-065-240900-
CENTRAL INDIANA

CITY           SKY/WX    TMP DP  RH WIND       PRES   REMARKS
FRANKFORT +    CLOUDY    74  74 100 NE6       30.03F
INDIANAPOLIS   PTCLDY    79  73  82 N5        30.00S
-EAGLE CREEK   CLOUDY    79  74  84 MISG      30.00R
KOKOMO *+      CLOUDY    72  64  78 CALM      30.01F
MARION +       CLOUDY    71  68  92 N6        30.02F
MT COMFORT *+  CLOUDY    72  72 100 N3        30.02R
SHELBYVILLE    CLOUDY    75  72  90 N3        29.99R
ZIONSVILLE +   CLOUDY    73  70  90 N16       30.03R

$$

INZ033-034-041-042-049-050-058-059-240900-
EAST CENTRAL INDIANA

CITY           SKY/WX    TMP DP  RH WIND       PRES   REMARKS
MUNCIE         CLOUDY    77  70  79 NW13G26   30.02R

$$

INZ060-061-067>069-081>083-085>088-240900-
SOUTHWEST INDIANA

CITY           SKY/WX    TMP DP  RH WIND       PRES   REMARKS
EVANSVILLE     CLEAR     78  76  93 CALM      29.96S FOG
HUNTINGBURG *+ PTCLDY    77  73  88 SE5       29.96F
WASHINGTON +   CLOUDY    75  75 100 MISG      29.96S FOG

$$

INZ062-063-066-070>080-084-089>092-240900-
SOUTH CENTRAL AND SOUTHEAST INDIANA

CITY           SKY/WX    TMP DP  RH WIND       PRES   REMARKS
BLOOMINGTON    FOG       75  72  90 CALM      29.98F VSB 1/2
MADISON *+     CLOUDY    75  72  88 CALM      30.01F
NORTH VERNON + CLOUDY   N/A N/A N/A CALM      29.98F
SEYMOUR +      CLOUDY    75  75 100 SE3       29.96F FOG

$$





USA.gov is the U.S. government's official web portal to all federal, state and local government web resources and services.